World > North America > United States > North Carolina

Beargrass, North Carolina Regional Weather

Lat: 35.77N, Lon: 77.13W
Wx Zone: NCZ029
Feedback

Beargrass, NC Regional Weather

Expires:201910171700;;850500
ASUS42 KMHX 171615
RWRMHX
WEATHER ROUNDUP FOR EASTERN NORTH CAROLINA
NATIONAL WEATHER SERVICE NEWPORT/MOREHEAD CITY NC
1200 PM EDT THU OCT 17 2019

NOTE: "FAIR" INDICATES FEW OR NO CLOUDS BELOW 12,000 FEET
WITH NO SIGNIFICANT WEATHER AND/OR OBSTRUCTIONS TO VISIBILITY


NCZ011>013-027>030-043-044-078>080-089-090>093-098-171700-
COASTAL PLAIN
  
CITY           SKY/WX    TMP DP  RH WIND       PRES   REMARKS
AHOSKIE        NOT AVBL                                               
CLINTON        FAIR      61  40  46 W13       29.91S                  
ELIZABETHTOWN  FAIR      61  37  40 NW13G20   29.92F                  
GOLDSBORO      FAIR      61  38  42 W16G22    29.86S                  
GREENVILLE     FAIR      59  37  44 W10G17    29.88S                  
HAVELOCK       FAIR      63  39  41 W16       29.87S                  
KENANSVILLE    FAIR      61  39  44 W13       29.90R                  
KINSTON        SUNNY     61  37  41 W9G17     29.88R                  
NEW BERN       FAIR      61  42  49 W13G22    29.88R                  
RICHLANDS      FAIR      61  39  44 W9G17     29.89S                  
ROCKY MOUNT    FAIR      60  39  45 W12G22    29.86F                  
WASHINGTON     FAIR      60  40  46 W13       29.85S                  
WHITEVILLE     NOT AVBL                                               

$$


SKY/WX - Weather  TMP - Temperature  DP - Dew Point  RH - Relative Humidity
WIND - Wind Direction/Speed PRES - Barometric Pressure VSB - Visibility
WCI - Wind Chill Index E13G22 Wind - East Wind 13 mph/Gusts of 22 mph